Location: Hancock Field Station
(44.9202°N, 120.4259°W)
Time: 02:52:17
(UTC-07:00)

Nadezhda 4 Rocket - Visible Passes

Search period start: 23 July 2014 00:00
Search period end: 02 August 2014 00:00
Orbit: 951 x 992 km, 82.9° (Epoch: 22 July)

Date Brightness Start Highest point End Pass type
(mag) Time Alt. Az. Time Alt. Az. Time Alt. Az.
23 Jul 4.5 04:55:58 10° S 05:02:02 63° E 05:08:13 10° NNE visible
24 Jul 6.4 03:37:53 10° ESE 03:41:43 17° E 03:45:34 10° NE visible
25 Jul 5.8 04:00:15 10° SE 04:05:29 30° E 04:10:47 10° NNE visible
26 Jul 4.8 04:23:28 10° SSE 04:29:25 51° E 04:35:27 10° NNE visible
27 Jul 6.5 03:06:19 10° ESE 03:09:14 14° ENE 03:12:09 10° NE visible
27 Jul 4.1 04:47:18 10° S 04:53:30 87° E 04:59:49 10° N visible
28 Jul 6.0 03:28:07 10° SE 03:32:56 24° E 03:37:48 10° NNE visible
29 Jul 5.1 03:51:03 10° SSE 03:56:48 42° E 04:02:38 10° NNE visible
30 Jul 6.6 02:35:31 10° E 02:36:47 11° ENE 02:38:02 10° ENE visible
30 Jul 4.3 04:14:40 10° S 04:20:50 72° E 04:27:06 10° NNE visible
31 Jul 6.2 02:56:08 10° SE 03:00:25 20° E 03:04:44 10° NE visible
31 Jul 4.0 04:38:50 10° SSW 04:45:02 69° W 04:51:19 10° N visible
01 Aug 5.4 03:18:45 10° SSE 03:24:14 34° E 03:29:47 10° NNE visible
01 Aug 4.6 05:03:34 10° SW 05:09:23 41° WNW 05:15:18 10° N visible
